Regional Weather Roundup
Issued by NWS

Home | Current Version | Previous Version | Graphics & Text | Print | Product List | Glossary Off
Versions: 1 2 3 4 5 6 7 8 9 10 11 12 13 14 15 16 17 18 19 20 21 22 23 24 25 26 27 28 29 30 31 32 33 34 35 36 37 38 39 40 41 42 43 44 45 46 47 48 49 50

000
ASUS43 KMKX 180900
RWRWI

WISCONSIN REGIONAL WEATHER ROUNDUP
NATIONAL WEATHER SERVICE MILWAUKEE/SULLIVAN WI
300 AM CST SAT NOV 18 2017

NOTE: "FAIR" INDICATES FEW OR NO CLOUDS BELOW 12,000 FEET WITH NO
SIGNIFICANT WEATHER AND/OR OBSTRUCTIONS TO VISIBILITY.

WIZ001-002-006>008-014>016-023>028-181000-
NORTHWEST WISCONSIN

CITY           SKY/WX    TMP DP  RH WIND       PRES   REMARKS
SUPERIOR ARPT  CLOUDY    32  30  92 N3        29.72R
ASHLAND        CLOUDY    34  32  92 NW5       29.69R FOG     WCI  30
HAYWARD        CLOUDY    34  31  88 CALM      29.67R FOG
SIREN          CLOUDY    32  32 100 NW5       29.70R FOG     WCI  27
CUMBERLAND     CLOUDY    32  32 100 NW8       29.68R FOG     WCI  25
RICE LAKE      CLOUDY    33  33  97 NW3       29.69R FOG
CHETEK         CLOUDY    33  33  99 CALM      29.67S FOG
LADYSMITH      CLOUDY    34  33  99 N7        29.66S FOG     WCI  28
EAU CLAIRE     CLOUDY    35  33  92 N5        29.66R WCI  31
MENOMONIE      CLOUDY    35  35 100 NW6       29.67R FOG     WCI  30
NEW RICHMOND   CLOUDY    33  33 100 N8        29.69R FOG     WCI  26
OSCEOLA        CLOUDY    34  34 100 NW6       29.74R FOG     WCI  29
$$

WIZ003>005-009-010-017-018-181000-
NORTH CENTRAL WISCONSIN

CITY           SKY/WX    TMP DP  RH WIND       PRES   REMARKS
MANITOWISH WTR FOG       32  32 100 N3        29.61F VSB 1/2
ARBOR VITAE    FOG       34  33  96 N6        29.60S VSB 1/2 WCI  29
WOODRUFF       FOG       34  33  96 N6        29.60S VSB 1/2 WCI  29
RHINELANDER    FOG       32  32 100 N5        29.60R VSB 1   WCI  27
EAGLE RIVER    FOG       32  32 100 N8        29.59S VSB 1/2 WCI  25
LAND O LAKES   FOG       33  33 100 N6        29.62R VSB 1/4 WCI  28
PHILLIPS       CLOUDY    32  32 100 N5        29.62F FOG     WCI  27
TOMAHAWK       CLOUDY    32  32  99 N3        29.61R FOG
MEDFORD        CLOUDY    32  32 100 N6        29.59F FOG     WCI  26
MERRILL        CLOUDY    34  33  99 N5        29.59F WCI  29
$$

WIZ029-030-035-036-043>047-181000-
CENTRAL WISCONSIN

CITY           SKY/WX    TMP DP  RH WIND       PRES   REMARKS
WAUSAU         CLOUDY    34  32  92 N5        29.59R WCI  30
MOSINEE        CLOUDY    34  34 100 NW9       29.61R WCI  26
MARSHFIELD     CLOUDY    34  31  88 N7        29.59F WCI  28
STEVENS POINT  CLOUDY    33  33 100 N7        29.60S FOG     WCI  26
WAUPACA        CLOUDY    37  36  96 W3        29.61R FOG
WAUTOMA        CLOUDY    36  34  92 NW3       29.60R
WISC RAPIDS    CLOUDY    35  34  96 N9        29.62R WCI  28
CAMP DOUGLAS   CLOUDY    36  36  99 NW5       29.61R WCI  32
$$

WIZ011>013-019>022-031-037>040-048>050-181000-
NORTHEAST WISCONSIN

CITY           SKY/WX    TMP DP  RH WIND       PRES   REMARKS
ANTIGO         CLOUDY    32  32  99 N10       29.59R WCI  24
SHAWANO        MOCLDY    35  34  93 CALM      29.59R
OCONTO         CLOUDY    35  33  93 N7        29.58R WCI  29
STURGEON BAY   CLOUDY    38  34  85 N14       29.56R WCI  30
GREEN BAY      CLOUDY    37  36  96 N7        29.58R WCI  32
MANITOWOC      CLOUDY    37  34  89 NW9       29.57R WCI  30
APPLETON       CLOUDY    34  34 100 NW8       29.56S FOG     WCI  27
CLINTONVILLE   PTCLDY    36  34  93 N3        29.59R
OSHKOSH        CLOUDY    37  35  92 NW8       29.58R WCI  31
$$

WIZ032>034-041-042-053>061-181000-
SOUTHWEST WISCONSIN

CITY           SKY/WX    TMP DP  RH WIND       PRES   REMARKS
LA CROSSE      CLOUDY    39  37  92 N9        29.63F WCI  33
SPARTA         CLOUDY    35  35 100 N6        29.63R WCI  30
VIROQUA        CLOUDY    36  36 100 N8        29.58F WCI  29
BOSCOBEL       LGT RAIN  40  37  89 N3        29.61R
PRAIRIE DU CHI DRIZZLE   38  37  96 NW7       29.61R WCI  33
PLATTEVILLE    CLOUDY    38  38 100 N12       29.57R WCI  31
$$

WIZ056-057-062-063-064-067-068-181000-
SOUTH CENTRAL WISCONSIN

CITY           SKY/WX    TMP DP  RH WIND       PRES   REMARKS
REEDSBURG      RAIN      37  37 100 N8        29.60R WCI  30
BARABOO/DELLS  CLOUDY    36  36  98 N8        29.59R WCI  30
LONE ROCK      NOT AVBL
MINERAL POINT  CLOUDY    37  37 100 N10G16    29.57R WCI  30
MADISON        CLOUDY    38  36  92 N10       29.57R WCI  31
MIDDLETON      CLOUDY    39  39 100 N10       29.58R WCI  32
WATERTOWN      CLOUDY    37  37 100 N5        29.54F FOG     WCI  34
MONROE         CLOUDY    37  37 100 N12       29.53S FOG     WCI  30
JANESVILLE     CLOUDY    41  41 100 N6        29.54S FOG
$$

WIZ051-052-058>065-066-070>072-181000-
SOUTHEAST WISCONSIN

CITY           SKY/WX    TMP DP  RH WIND       PRES   REMARKS
MILWAUKEE      CLOUDY    42  40  92 N6        29.53F
WAUKESHA       CLOUDY    36  36 100 N3        29.55S
MILWAUKEE/TIMM CLOUDY    37  36  93 N6        29.55F WCI  33
RACINE         CLOUDY    42  41  96 N5        29.55F FOG
BURLINGTON     CLOUDY    42  42 100 N5        29.54S FOG
KENOSHA        CLOUDY    43  41  93 N5        29.53F
FOND DU LAC    CLOUDY    38  34  85 N10       29.56F WCI  31
SHEBOYGAN      CLOUDY    38  37  97 N12       29.55S WCI  30
WEST BEND      CLOUDY    37  36  93 N7        29.55S WCI  32
JUNEAU         CLOUDY    37  36  96 N7        29.55F FOG     WCI  31
$$

LSZ147-162-181000-
LAKE SUPERIOR

STATION/POSITION TIME  TEMP    WIND        PRES    WAVE
                       AIR SEA DIR/SP/G            HT/PER
                 (UTC) (F)     (DEG/KT/KT) (MB)    (FT/S)
DEVILS ISLAND    0800   37     360/ 10/ 12 1005.6R
SAXON HARBOR     0840   38     350/ 10/ 11 1004.1F
$$

LMZ867-665-643>646-181000-
LAKE MICHIGAN

STATION/POSITION TIME  TEMP    WIND        PRES    WAVE
                       AIR SEA DIR/SP/G            HT/PER
                 (UTC) (F)     (DEG/KT/KT) (MB)    (FT/S)
N MID LAKE BUOY  0750   40 48  350/ 17/ 21 1000.9F   6/ 8
NORTHPORT PIER   0840   39     360/ 15/ 18 1001.0S
SHEBOYGAN LAKESH 0800   39     320/  8/  9 1001.0R
PORT WASHINGTON  0840   40     330/  2/  6 1001.7S
MILWAUKEE LAKESH 0830   41     340/  7/  8   N/A
S MID LAKE BUOY  0750   46 49  280/  8/ 10 1000.8F   4/ 6
KENOSHA   LAKESH 0800   43        CALM     1001.0
$$

TC  - TEMPERATURE IN CELSIUS
VSB - VISIBILITY IN STATUTE MILES
WCI - WIND CHILL INDEX
HX  - HEAT INDEX





USA.gov is the U.S. government's official web portal to all federal, state and local government web resources and services.